Olenek, Russia
Current Conditions -  °F | °C
As of 7:30 AM on Saturday 20 Dec 2014 (Local Time) from UEEE Reporting Station
Light Snow Light Snow  
Wind Chill: -42°   Ceiling: 20000
Heat Index: -42°   Visibility: 1.5mi
Dew Point: -49°   Wind: 2mph
Humidity: 67%   Direction: 20°NNE
Pressure: 30.3"   Gusts: NA
Location:  68.51°N, 112.49°E
Report Text: UEEE 192230Z 02001MPS 2400 -SN BR OVC200 M41/M45 Q1026 NOSIGRMK QFE760 23490150
Loading
Personal Weather Stations






























Interactive Weather Map New forecast layout! Learn more

10-Day Weather Forecast

Advertisements
Track Severe Weather on mobile